User: anonymous
Location: Unspecified
(0.0000°N, 0.0000°E)
Time: 17:23:49
(UTC+00:00)
Language:

Aussat K2 - Orbit

View from above orbital plane
View from above orbital plane
View from above satellite
View from above satellite

Ground track
Ground track

The orbit data is extracted from the following two-line orbital elements,

1 16275U 85109C   14112.47814508 -.00000270  00000-0  00000+0 0  4523
2 16275 014.5701 021.1519 0002283 144.9000 147.9584 00.99940925 93718
Epoch (UTC): 22 April 2014 11:28:31
Eccentricity: 0.0002283
inclination: 14.5701°
perigee height: 35869 km
apogee height: 35889 km
right ascension of ascending node: 21.1519°
argument of perigee: 144.9000°
revolutions per day: 0.99940925
mean anomaly at epoch: 147.9584°
orbit number at epoch: 9371

The dashed part of the orbit path shows where the satellite is in the earth's shadow,  

DLR